#timestamp,LO_Frequency,Hit,StdDev 
1682784015.1,286046995.8,N
1682784035.9,286046997.1,N
1682784055.7,286046998.7,N
1682784075.6,286047000.5,N
1682784095.4,286047002.8,N
1682784115.2,286047007.6,N
1682784135.1,286047006.9,N
1682784136.0,286047006.9,N
1682784155.8,286047007.3,N
1682784175.7,286047005.7,N
1682784195.5,286047007.0,N
1682784215.3,286047004.5,N
1682784235.2,286047007.7,N
1682784255.9,286047015.5,N
1682784275.7,286047016.2,N
1682784295.6,286047021.8,Y
1682784315.4,286047019.5,P
1682784335.3,286047021.0,N
1682784355.1,286047020.9,N
1682784356.0,286047020.9,N
1682784375.8,286047021.9,N
1682784395.7,286047016.2,N
1682784415.5,286047017.9,N
1682784435.3,286047018.0,N
1682784455.2,286047014.3,N
1682784475.0,286047019.8,Y
1682784475.9,286047019.8,P
1682784495.8,286046998.1,N
1682784515.6,286046997.0,N
1682784535.4,286047001.0,N
1682784555.3,286047001.0,N
1682784575.1,286047000.7,N
1682784595.8,286046998.7,N
1682784615.7,286046997.8,N
1682784635.5,286046996.1,N
1682784655.4,286046993.4,N
1682784675.2,286046998.9,N
1682784695.0,286047001.6,N
1682784695.9,286047001.6,N
1682784715.8,286047003.9,N
1682784735.6,286046999.8,N
1682784755.4,286046998.2,N
1682784775.3,286046996.6,N
1682784795.1,286046999.8,N
1682784815.9,286047002.3,N
1682784835.7,286046999.9,N
1682784855.5,286046999.8,N
1682784875.4,286047004.3,N
1682784895.2,286047002.1,N
1682784915.0,286047003.8,N
1682784915.9,286047003.8,N
1682784935.8,286047008.3,N
1682784955.6,286047013.8,N
1682784975.5,286047020.3,Y
1682784995.3,286047019.8,P
1682785015.1,286047021.0,N
1682785035.9,286047024.2,N
1682785055.7,286047026.9,Y
1682785075.5,286047013.6,P
1682785095.4,286047015.9,P
1682785115.2,286047014.3,P
1682785135.1,286047010.3,Y
1682785136.0,286047010.3,P
1682785155.8,286046994.6,N
1682785175.6,286046993.7,N
1682785195.5,286046996.8,N
1682785215.3,286046997.6,N
1682785235.1,286046999.5,N
1682785255.9,286046999.5,N
1682785275.7,286046999.0,N
1682785295.6,286047000.8,N
1682785315.4,286046996.9,N
1682785335.2,286046998.8,N
1682785355.1,286047001.0,N
1682785356.0,286047001.0,N
1682785375.8,286047001.7,N
1682785395.6,286047001.5,N
1682785415.5,286046999.2,N
1682785435.3,286047001.1,N
1682785455.2,286047001.0,N
1682785475.9,286046995.6,N
1682785495.7,286046992.4,N
1682785515.6,286046992.9,N
1682785535.4,286046996.4,N
1682785555.2,286046990.6,N
1682785575.1,286046987.1,N
1682785576.0,286046987.1,N
1682785595.8,286046984.4,N
1682785615.7,286046984.8,N
1682785635.5,286046985.5,N
1682785655.3,286046989.7,N
1682785675.2,286046990.5,N
1682785695.0,286046994.1,N
1682785695.9,286046994.1,N
1682785715.8,286046995.0,N
1682785735.6,286046997.1,N
1682785755.4,286046998.2,N
1682785775.3,286046999.8,N
1682785795.1,286047001.6,N
1682785815.8,286047004.5,N
1682785835.7,286047006.2,N
1682785855.5,286047005.5,N
1682785875.4,286047005.7,N
1682785895.2,286047005.4,N
1682785915.0,286047008.2,N
1682785915.9,286047008.2,N
1682785935.8,286047008.9,N
1682785955.6,286047012.0,N
1682785975.4,286047011.7,N
1682785995.3,286047011.0,N
1682786015.1,286047011.0,N
1682786035.9,286047012.3,N
1682786055.7,286047009.7,N
1682786075.5,286047013.7,N
1682786095.4,286047012.9,N
1682786115.2,286047014.0,N
1682786135.1,286047013.8,N
1682786136.0,286047013.8,N
1682786155.8,286047005.0,N
1682786175.6,286047002.8,N
1682786195.5,286046998.2,N
1682786215.3,286046998.7,N
1682786235.1,286046997.9,N
1682786255.9,286046995.7,N
1682786275.7,286046993.3,N
1682786295.6,286046993.6,N
1682786315.4,286046994.3,N
1682786335.2,286046990.1,N
1682786355.1,286046992.1,N
1682786356.0,286046992.1,N
1682786375.8,286046995.8,N
1682786395.6,286046995.5,N
1682786415.5,286046995.1,N
1682786435.3,286046999.0,N
1682786455.2,286047004.3,N
1682786475.9,286047003.8,N
1682786495.7,286047006.6,N
1682786515.6,286047010.3,N
1682786535.4,286047013.7,N
1682786555.2,286047015.1,N
1682786575.1,286047015.4,N
1682786576.0,286047015.4,N
1682786595.8,286047012.8,N
1682786615.7,286047015.3,N
1682786635.5,286047014.7,N
1682786655.3,286047017.1,N
1682786675.2,286047015.8,N
1682786695.0,286047016.2,N
1682786695.9,286047016.2,N
1682786715.7,286047016.0,N
1682786735.6,286047017.9,N
1682786755.4,286047021.2,N
1682786775.3,286047022.6,N
1682786795.1,286047023.7,N
1682786796.0,286047023.7,N
1682786815.8,286047027.9,N
1682786835.7,286047029.7,N
1682786855.5,286047029.1,N
1682786875.3,286047027.2,N
1682786895.2,286047025.8,N
1682786915.0,286047024.5,N
1682786915.9,286047024.5,N
1682786935.8,286047023.0,N
1682786955.6,286047019.0,N
1682786975.4,286047020.1,N
1682786995.3,286047017.9,N
1682787015.1,286047018.9,Y
1682787035.9,286047001.3,P
1682787055.7,286047002.9,N
1682787075.5,286047005.9,N
1682787095.4,286047001.7,N
1682787115.2,286047003.0,N
1682787135.0,286047004.1,N
1682787135.9,286047004.1,N
1682787155.8,286047002.7,N
1682787175.6,286046995.1,N
1682787195.5,286046997.8,N
1682787215.3,286046995.4,N
1682787235.1,286046997.3,N
1682787255.9,286046997.0,N
1682787275.7,286047000.4,N
1682787295.5,286047002.8,N
1682787315.4,286047001.8,N
1682787365.3,286047005.3,E
1682787375.2,286047004.2,N
1682787395.0,286047000.5,P
1682787395.9,286047000.5,N
1682787415.8,286047003.7,N
1682787435.6,286047005.0,N
1682787455.4,286047004.9,N
1682787475.3,286047004.6,N
1682787495.1,286047007.2,Y
1682787515.8,286047001.0,P
1682787535.7,286047001.5,N
1682787555.5,286047004.9,P
1682787575.4,286047004.5,N
1682787595.2,286047005.0,Y
